Temp
14 14 14 14 15 16 16 15 15 15 15 14 14 13 13 13 13 12 13 13 13 13 13 12 12 13 13 13 14 14 14 16 12 12 13 13 13 14 14 14 14 14 14
15 14 14 15 15 15 15 15 15 15 14 14 13 12 12 12 13 13 13 12 13 13 12 12 12 12 12 13 13 13 13 14 14 12 13 13 14 14 14 14 14 14 13
13 14 13 14 14 15 15 15 14 14 13 13 13 12 12 12 13 12 12 12 12 13 13 12 12 12 12 13 13 12 13 12 13 13 12 13 13 13 13 13 13 12 11
7 12 13 13 14 14 14 13 13 13 13 12 12 12 12 12 12 12 12 12 12 12 12 12 13 12 12 12 12 12 12 11 11 11 11 11 11 11 11 11 11 10 9
4 6 8 8 11 13 13 13 12 12 12 12 11 11 11 11 11 12 12 12 12 12 12 11 12 12 12 12 12 11 10 10 10 10 10 10 10 10 10 9 9 8 5
2 2 3 4 4 7 8 9 9 9 9 10 9 9 8 8 9 11 11 11 11 11 10 10 10 11 11 11 11 11 11 10 10 10 10 10 7 7 7 7 7 6 4
1 1 0 1 1 1 3 3 4 5 5 6 5 6 5 4 6 8 10 10 9 7 7 7 6 6 7 8 9 9 9 10 9 9 8 5 3 3 3 3 3 4 1
-1 0 0 0 -0 -0 -0 -0 -0 1 1 1 2 2 2 -0 2 5 6 6 5 4 4 4 4 3 4 5 5 5 3 4 4 5 4 2 2 2 2 2 2 1 -1
-2 -2 -1 -1 -0 -1 -2 -2 -2 -2 -2 -2 -2 -1 -0 -1 -0 1 2 2 1 -0 1 1 1 1 1 2 3 0 -2 -4 -3 -1 -1 -1 -0 1 1 1 -0 -0 -3
-3 -3 -2 -2 -2 -2 -2 -2 -2 -2 -3 -3 -3 -3 -3 -3 -1 0 0 -1 -2 -2 -2 -2 -1 -1 -1 -1 -0 -1 -3 -4 -4 -4 -3 -2 -2 -2 -1 -0 -1 -1 -4
-3 -3 -2 -3 -3 -3 -3 -3 -3 -3 -3 -3 -4 -4 -4 -3 -3 -2 -2 -1 -3 -3 -3 -4 -4 -3 -2 -2 -2 -3 -5 -5 -4 -4 -4 -4 -3 -3 -3 -2 -2 -2 -4
-4 -4 -4 -3 -3 -3 -4 -4 -4 -4 -4 -4 -4 -4 -4 -4 -4 -4 -3 -3 -4 -4 -5 -4 -4 -5 -5 -5 -4 -5 -5 -4 -4 -4 -4 -5 -5 -5 -5 -5 -5 -5 -6
-4 -5 -5 -4 -4 -4 -4 -4 -5 -5 -5 -5 -5 -5 -5 -5 -5 -5 -4 -4 -4 -5 -6 -6 -6 -6 -5 -5 -5 -5 -5 -5 -5 -6 -6 -6 -6 -6 -6 -6 -6 -6 -7
-5 -6 -6 -6 -5 -5 -5 -5 -5 -6 -6 -6 -5 -5 -5 -5 -5 -5 -6 -6 -6 -6 -5 -5 -6 -6 -6 -6 -6 -6 -6 -6 -7 -7 -7 -7 -7 -6 -6 -6 -7 -7 -7
-6 -6 -6 -7 -7 -6 -6 -6 -6 -6 -6 -6 -6 -5 -5 -5 -5 -5 -5 -6 -6 -7 -7 -7 -7 -7 -8 -8 -8 -8 -8 -8 -8 -8 -8 -8 -8 -8 -8 -8 -8 -7 -9
-5 -6 -7 -7 -7 -7 -7 -6 -6 -6 -6 -6 -6 -5 -5 -5 -5 -6 -6 -7 -7 -7 -7 -9 -10 -10 -10 -10 -10 -10 -10 -9 -10 -10 -10 -10 -10 -10 -10 -10 -9 -9 -10
-5 -5 -6 -7 -8 -8 -8 -8 -8 -7 -7 -7 -6 -6 -6 -6 -7 -7 -8 -8 -8 -7 -9 -10 -11 -11 -11 -11 -11 -11 -12 -12 -11 -11 -11 -11 -11 -11 -11 -11 -11 -11 -11
-6 -5 -6 -7 -7 -8 -8 -8 -8 -8 -9 -8 -8 -8 -7 -8 -8 -9 -8 -7 -9 -10 -10 -11 -11 -11 -12 -12 -12 -12 -12 -12 -12 -12 -12 -12 -12 -12 -12 -12 -12 -12 -12
-6 -6 -6 -6 -7 -8 -8 -8 -9 -9 -9 -9 -9 -9 -10 -10 -10 -8 -8 -9 -11 -11 -12 -12 -12 -12 -12 -12 -13 -13 -13 -13 -14 -13 -13 -13 -13 -13 -13 -13 -13 -13 -13
-6 -6 -6 -6 -7 -8 -8 -9 -9 -10 -10 -10 -10 -10 -10 -9 -10 -11 -11 -11 -12 -12 -12 -13 -13 -13 -13 -13 -14 -14 -14 -14 -14 -14 -15 -14 -14 -14 -14 -14 -14 -14 -14
-7 -7 -7 -7 -7 -8 -9 -9 -10 -10 -11 -11 -11 -11 -11 -11 -12 -13 -13 -13 -13 -13 -13 -13 -14 -14 -14 -14 -15 -15 -15 -16 -16 -16 -16 -16 -15 -15 -15 -15 -15 -15 -15
-7 -7 -8 -8 -8 -8 -9 -10 -10 -11 -11 -11 -12 -12 -12 -12 -13 -14 -14 -14 -14 -14 -15 -15 -15 -15 -16 -16 -16 -16 -16 -17 -17 -17 -17 -17 -16 -16 -16 -16 -16 -16 -16
-8 -8 -8 -9 -9 -9 -9 -10 -10 -11 -11 -12 -12 -12 -13 -13 -14 -14 -15 -15 -15 -16 -16 -16 -16 -16 -17 -17 -17 -17 -17 -17 -17 -17 -17 -17 -17 -17 -17 -17 -17 -17 -17
-9 -9 -9 -10 -10 -10 -10 -10 -11 -11 -12 -12 -12 -13 -13 -14 -14 -15 -15 -16 -16 -17 -17 -17 -17 -17 -18 -18 -18 -18 -18 -18 -18 -18 -17 -17 -18 -18 -18 -18 -18 -18 -18
-11 -11 -11 -11 -11 -11 -11 -11 -12 -12 -12 -13 -13 -13 -14 -14 -15 -15 -16 -16 -17 -17 -17 -18 -18 -18 -18 -18 -19 -19 -19 -19 -19 -19 -18 -18 -19 -19 -19 -19 -19 -19 -19
-12 -12 -12 -12 -12 -12 -12 -12 -12 -13 -13 -13 -14 -14 -14 -15 -15 -16 -16 -16 -17 -17 -17 -18 -18 -18 -19 -19 -19 -19 -19 -20 -20 -20 -19 -19 -19 -19 -19 -20 -20 -20 -20
Height
651 661 665 667 674 677 683 688 693 697 699 703 706 711 716 719 721 723 723 724 723 720 726 733 739 746 753 759 764 770 771 774 777 783 786 790 793 795 799 802 804 806 808
655 664 667 669 672 680 684 689 692 696 699 701 704 710 714 716 718 720 719 720 717 720 723 729 735 743 750 755 761 764 769 770 774 781 785 788 789 793 796 797 799 802 803
665 663 667 670 673 677 682 687 690 693 698 700 704 709 712 715 716 717 717 717 716 719 723 725 729 737 745 752 758 762 765 769 773 778 783 785 787 788 791 793 795 796 798
667 667 668 669 670 675 680 686 690 690 696 700 704 708 711 713 714 715 715 716 716 718 720 725 726 734 740 747 754 759 763 768 771 776 778 781 783 785 787 788 790 792 794
676 671 668 662 671 673 679 685 689 692 694 699 703 706 710 711 713 713 714 714 715 717 721 724 726 734 740 745 751 756 761 765 767 771 774 777 777 779 781 782 786 788 791
687 683 678 669 676 675 678 686 690 694 696 699 704 705 708 711 712 713 714 714 716 718 721 724 726 733 738 743 747 751 754 757 760 764 767 769 773 776 778 780 783 785 790
693 687 686 687 681 683 684 690 693 697 701 702 705 708 710 712 713 712 713 714 717 720 723 726 729 734 737 740 742 746 750 753 757 760 763 767 770 774 777 778 780 783 787
704 701 699 702 693 690 697 696 700 702 707 710 711 711 714 717 716 715 715 717 719 723 727 730 732 736 739 741 743 747 751 754 758 759 762 766 770 773 775 777 778 782 787
716 712 710 710 708 708 706 706 706 709 713 718 720 719 718 721 722 720 720 722 726 730 733 736 738 740 745 746 746 748 756 762 765 763 766 768 770 772 775 776 778 781 787
727 724 720 717 717 721 715 716 718 718 720 725 726 728 729 725 727 727 728 729 732 736 739 742 744 745 748 751 752 754 758 765 767 769 772 773 775 775 778 778 779 782 786
735 734 732 731 730 731 727 726 727 730 725 732 733 735 737 734 734 735 735 735 741 745 749 749 751 750 751 755 758 762 766 771 769 771 775 780 780 782 782 783 784 786 787
742 742 743 742 740 739 740 737 737 736 734 740 740 741 742 743 742 744 744 744 746 750 755 758 760 760 758 761 763 769 774 777 780 773 776 788 789 788 788 788 790 791 794
748 750 752 750 748 747 745 745 749 748 747 748 749 749 750 751 751 754 754 754 756 755 760 765 767 766 766 765 774 778 779 782 785 782 787 793 791 792 794 794 795 795 798
756 758 758 759 758 757 756 755 756 758 759 756 761 763 756 760 759 762 764 764 764 764 765 764 771 772 772 777 783 784 786 788 789 791 792 795 797 796 797 798 798 799 801
765 765 767 768 768 769 768 768 768 769 767 766 768 766 764 764 769 770 769 769 770 771 773 772 774 777 780 784 789 792 791 792 795 798 796 797 799 801 800 799 799 800 801
775 774 775 776 776 776 775 774 774 775 774 775 773 772 772 771 774 775 775 776 777 778 778 780 785 788 790 792 792 793 794 795 800 802 803 803 803 804 801 801 802 802 801
780 780 779 780 780 779 779 778 780 782 780 781 781 780 779 779 782 783 783 783 784 784 785 789 793 796 798 799 800 800 801 801 803 802 801 806 807 805 804 805 805 804 804
785 784 784 786 785 785 785 784 785 786 786 786 787 787 788 788 789 788 787 786 788 791 792 797 799 801 802 803 803 805 806 806 805 806 806 807 805 805 807 807 807 806 806
791 790 790 790 790 790 790 790 791 791 791 792 793 793 793 792 791 791 791 791 794 796 800 802 803 804 805 805 807 808 807 808 808 808 808 808 805 807 810 810 809 807 807
795 795 794 794 794 794 795 795 795 796 796 796 796 796 796 796 796 796 798 798 800 801 803 804 805 807 807 808 809 810 810 810 809 808 808 808 809 812 812 811 809 808 807
799 798 798 798 797 798 798 798 799 800 800 800 801 801 801 800 801 802 803 804 804 804 805 807 809 810 811 810 811 811 809 810 810 810 810 811 812 811 811 811 811 809 809
801 801 800 800 800 801 801 801 802 803 803 804 805 805 805 805 805 806 807 807 808 809 810 810 811 811 811 812 812 811 810 811 811 811 811 810 811 812 812 813 812 810 809
803 803 802 802 802 803 803 804 805 805 806 807 807 807 808 808 808 809 809 809 810 810 811 812 811 811 811 812 812 812 812 812 811 811 811 811 812 812 813 813 811 810 808
805 805 804 804 804 804 804 805 806 807 807 808 808 808 809 809 810 811 811 811 811 812 812 812 812 812 812 813 813 812 812 812 812 811 811 811 811 813 812 811 810 809 807
807 807 806 806 806 806 806 806 806 807 807 808 808 809 810 811 811 812 812 812 812 813 813 813 812 813 812 813 813 813 813 812 811 810 810 811 810 809 809 809 808 808 809
809 809 808 808 807 807 807 807 807 807 808 808 809 810 810 811 811 812 812 812 812 811 811 811 812 813 813 813 813 813 812 812 811 810 809 808 807 808 808 809 810 809 807
Wind_Speed
15 19 22 26 28 26 27 25 22 21 20 20 17 16 17 20 22 23 25 27 28 28 34 36 32 33 26 21 26 25 22 13 6 6 9 14 16 14 9 8 7 9 12
11 14 22 27 26 28 24 24 22 20 17 15 13 12 13 12 16 17 18 18 23 24 30 31 34 35 26 20 22 24 16 9 11 10 13 11 9 9 9 12 14 11 13
1 12 18 23 27 26 26 23 21 17 14 11 8 10 12 15 16 16 18 20 21 26 29 27 31 33 30 25 23 19 18 17 15 11 12 13 15 15 16 15 12 10 12
20 8 7 23 26 25 20 21 19 17 15 12 11 9 10 11 13 14 13 17 19 21 28 31 26 29 30 30 29 24 21 17 13 14 11 12 14 14 12 9 8 8 9
24 20 12 17 23 28 25 23 20 18 17 15 11 9 6 5 7 10 10 15 17 21 20 22 27 23 25 28 30 26 23 18 16 15 11 9 8 7 9 8 5 11 11
26 26 19 14 17 24 24 22 21 18 16 15 11 8 4 2 4 9 11 17 19 20 19 17 17 21 22 25 25 21 20 17 17 13 8 6 8 7 8 8 10 9 5
26 28 30 27 24 25 22 21 21 19 16 16 14 11 10 7 3 9 15 17 19 18 19 17 15 15 14 14 14 14 14 15 16 14 13 6 7 7 7 6 6 5 4
26 23 28 22 26 26 25 26 23 21 20 18 17 16 15 14 10 12 17 18 18 16 15 15 17 16 14 16 18 18 16 14 9 10 11 9 5 4 5 5 6 9 10
27 28 28 20 24 24 28 27 26 27 27 24 21 19 19 17 14 17 18 22 23 20 17 16 17 18 15 16 20 25 25 25 23 23 21 17 13 9 7 6 9 12 4
26 28 31 30 29 22 27 26 25 29 30 28 28 25 23 23 18 17 19 23 27 26 23 22 19 19 17 17 20 23 28 21 21 21 21 20 19 19 14 9 10 9 8
27 27 28 29 29 25 26 24 26 27 31 29 31 29 27 25 23 23 24 27 28 26 24 26 25 21 20 19 19 19 22 21 23 23 22 20 20 20 22 21 18 12 15
26 27 26 25 25 25 25 26 26 24 25 22 25 26 29 28 27 25 26 29 30 31 26 28 27 27 28 28 27 25 22 21 20 24 24 20 19 20 20 20 19 20 19
28 28 25 23 23 22 24 24 22 23 22 21 18 20 22 26 29 27 29 30 30 33 28 24 24 26 28 29 23 20 19 19 20 24 23 18 18 15 14 16 16 15 15
25 25 25 26 25 23 23 22 21 19 17 19 16 15 21 21 22 21 22 25 26 27 26 27 24 25 26 24 21 20 20 19 20 20 19 15 13 13 14 12 12 10 11
19 20 20 22 22 24 26 23 23 19 19 19 19 19 17 19 17 16 19 21 22 23 23 23 23 22 22 21 19 17 17 17 16 15 15 15 14 13 13 11 11 11 13
15 15 15 14 16 18 19 23 24 21 20 19 19 21 20 20 17 17 17 17 16 15 20 22 19 18 18 17 18 18 17 16 14 14 14 13 13 13 14 13 12 13 13
13 9 13 13 12 13 13 14 14 18 24 24 18 19 20 19 17 17 17 15 12 14 22 20 18 17 16 16 16 16 16 15 13 14 14 12 11 12 12 13 11 11 12
15 13 11 11 13 14 14 14 14 15 17 21 21 20 17 16 15 13 11 13 18 19 20 18 16 15 14 15 14 14 14 12 13 12 12 11 11 11 11 12 11 11 10
12 11 10 9 10 11 12 12 12 14 16 16 14 13 14 15 13 11 10 16 19 18 16 15 14 13 13 14 13 12 11 11 10 9 10 10 10 8 9 9 9 9 10
10 9 7 8 9 9 8 9 9 10 10 11 12 10 10 9 15 16 16 15 15 15 13 13 12 11 11 10 8 7 7 7 7 7 8 7 8 6 7 7 8 8 9
8 7 6 6 7 7 7 7 8 8 11 12 11 10 8 12 14 14 13 12 12 11 10 9 9 8 6 6 5 5 6 6 6 5 4 5 4 5 6 5 5 5 5
6 6 5 6 6 6 7 9 10 10 11 11 10 9 8 9 11 11 11 10 8 7 7 6 5 6 5 4 5 5 6 6 5 3 2 2 2 4 3 2 3 4 5
5 6 5 5 5 5 6 7 7 7 8 8 7 7 6 8 8 8 7 6 5 5 5 3 3 4 3 3 3 4 5 6 6 3 2 1 0 2 2 3 3 5 6
4 4 3 3 2 4 5 6 7 6 7 6 5 5 5 5 5 5 5 4 3 3 4 4 4 5 5 3 2 4 5 7 8 6 3 2 3 2 1 3 5 7 7
6 4 2 2 1 2 3 4 4 4 4 3 3 2 2 3 3 2 2 3 2 2 1 1 1 3 4 4 3 3 4 6 8 7 5 3 4 4 5 7 7 6 6
5 4 3 3 3 1 2 4 4 4 5 4 5 4 4 4 5 3 2 2 2 3 3 2 3 3 2 3 2 2 4 5 6 8 7 7 7 7 8 7 6 4 4
Wind_Direction
143 168 185 184 187 186 190 194 194 196 195 199 204 221 225 234 240 244 246 252 236 194 189 185 179 176 181 179 196 216 197 173 124 174 159 158 145 147 158 188 226 258 266
154 186 189 186 180 185 189 191 194 195 196 194 199 216 227 234 240 244 248 239 195 184 180 182 183 187 182 177 184 174 176 153 149 163 190 207 213 236 250 258 256 263 264
246 191 181 181 180 181 186 188 188 179 178 180 185 218 233 237 237 241 246 234 197 193 184 170 171 183 185 184 179 177 174 176 181 176 208 231 257 258 272 267 257 240 248
28 95 176 172 162 165 165 168 165 157 157 164 173 195 225 235 237 241 240 230 214 198 189 189 179 182 182 190 194 187 180 195 202 218 226 227 227 249 243 238 210 189 199
22 50 45 57 138 146 147 147 149 154 152 156 159 166 188 207 224 217 220 211 181 183 178 167 170 180 189 193 191 197 201 204 210 214 205 199 189 180 194 201 159 178 151
31 31 43 65 72 121 125 131 134 131 130 136 134 135 131 131 221 217 203 174 166 164 156 154 169 190 196 198 200 206 209 213 228 227 212 185 175 188 193 190 175 164 160
40 36 40 46 53 66 97 106 109 109 116 114 111 108 98 83 117 171 182 158 151 147 148 151 144 147 160 168 181 202 214 218 218 203 187 170 179 195 195 179 171 147 112
32 37 49 51 52 67 78 79 80 92 92 91 102 104 97 78 99 136 138 136 130 127 132 140 141 135 137 142 135 119 104 100 113 145 145 141 161 180 179 178 169 137 116
33 32 46 51 63 68 66 66 72 80 75 72 75 89 98 84 93 112 120 118 112 105 111 122 125 118 120 132 127 113 99 88 88 95 98 94 92 101 127 143 153 145 104
37 41 47 50 57 57 79 84 82 82 76 74 70 70 73 81 88 100 109 105 91 89 97 100 104 108 110 114 115 119 108 108 104 97 89 84 82 85 84 95 140 139 124
58 60 63 64 57 54 63 72 81 85 90 81 78 70 69 78 83 95 103 104 91 82 76 80 86 100 108 109 108 108 110 118 110 102 95 89 84 82 77 76 81 92 101
68 63 61 65 69 71 68 71 70 70 75 78 81 77 74 75 81 90 99 101 100 88 79 81 85 85 88 96 97 103 109 109 108 101 93 87 90 88 84 82 80 79 78
63 59 58 64 67 69 71 69 63 70 69 64 66 74 75 78 83 89 97 102 106 104 98 93 93 93 94 92 98 105 108 107 102 94 91 89 89 93 108 97 92 83 77
62 59 59 55 60 66 69 74 74 63 64 72 71 75 83 82 89 92 94 102 106 105 109 107 100 97 96 98 100 99 97 99 99 98 96 96 100 97 98 108 111 104 77
65 65 66 67 63 62 65 68 71 72 83 77 76 81 80 83 86 99 103 103 105 108 109 105 103 100 97 98 96 94 96 97 95 100 97 94 94 94 88 89 85 81 87
68 68 72 75 77 72 73 75 69 72 73 79 82 84 82 91 93 94 96 99 104 109 102 99 96 102 102 104 102 97 93 96 96 95 92 90 88 85 79 77 80 78 73
73 71 71 74 76 80 85 78 70 76 81 72 69 73 81 91 90 92 94 96 105 121 109 109 108 109 109 108 107 101 95 90 95 97 94 88 89 84 78 74 71 71 66
68 71 87 90 92 96 101 99 99 93 75 75 75 75 79 83 88 91 104 113 100 100 106 109 110 111 109 106 102 101 100 94 87 86 89 91 85 81 77 72 67 64 58
65 70 77 94 107 102 104 97 96 98 97 94 90 84 83 80 84 94 110 109 108 105 106 103 104 105 104 99 97 96 93 88 83 81 82 80 75 71 75 72 67 61 50
61 62 72 90 109 113 108 102 103 101 102 93 81 76 81 90 84 85 93 104 107 107 106 103 100 103 105 104 98 88 87 80 76 74 76 75 76 72 69 66 58 50 42
58 66 84 108 121 120 114 105 117 116 115 105 91 82 85 99 96 93 92 92 98 102 103 102 100 100 101 97 92 79 65 53 50 60 82 86 75 59 56 47 38 39 30
39 39 75 106 127 132 122 119 123 120 121 119 109 96 86 91 98 98 93 92 96 100 97 92 94 91 88 78 68 56 49 36 39 46 64 65 33 22 6 356 8 17 11
40 42 78 95 100 122 143 143 141 130 124 119 118 113 101 99 98 92 84 83 87 89 82 73 64 68 67 52 36 17 17 26 20 12 13 201 272 358 25 44 27 12 10
31 32 44 74 86 114 140 162 173 158 149 139 132 119 106 102 101 91 79 67 71 82 84 82 65 63 54 50 65 64 38 19 8 2 346 276 264 272 280 349 351 350 345
30 33 35 35 87 164 159 153 156 170 176 175 174 171 159 162 161 143 109 78 92 82 45 172 172 47 41 40 38 53 26 6 356 357 349 312 258 275 313 325 330 331 327
24 35 51 60 73 106 207 197 192 197 203 209 215 227 240 223 213 217 223 292 295 323 336 301 254 278 317 355 24 22 353 355 2 360 350 333 307 287 290 295 283 299 331